Other Surface Observations
Issued by NWS

Home | Current Version | Previous Version | Text Only | Print | Product List | Glossary On
Versions: 1 2 3 4 5 6 7 8 9 10 11 12 13 14 15 16 17 18 19 20 21 22 23 24 25 26 27 28 29 30 31 32 33 34 35 36 37 38 39 40 41 42 43 44 45 46 47 48 49 50
448
SXUS52 KTAE 211718
OSOTAE
OSOTAE
North Florida/South Alabama/Southwest Georgia Weather Roundup
National Weather Service Tallahassee Florida
1200 PM EST TUE FEB 21 2017

Note: "fair" indicates few or no clouds below 12,000 feet with no
significant weather and/or obstructions to visibility.

!FLZ017-115-028-034-025-211800
...North Florida...

CITY           SKY/WX    TMP DP  RH WIND       PRES   REMARKS
TALLAHASSEE    CLOUDY    73  62  68 SE16G24   30.02F
APALACHICOLA   CLOUDY    70  67  90 SE10      30.02F
PERRY          CLOUDY    72  60  66 SE12      30.06F
CROSS CITY     CLOUDY    72  59  64 SE10      30.07F
JACKSONVILLE   CLOUDY    75  59  57 SE10      30.10F
$$

!FLZ112-006-005-002-011-211800
...Florida Panhandle...

CITY           SKY/WX    TMP DP  RH WIND       PRES   REMARKS
MARIANNA       CLOUDY    71  62  73 SE7       29.99
BONIFAY        CLOUDY    68  61  78 SE7       29.99F
PANAMA CITY NW CLOUDY    71  60  68 SE10      29.97F
TYNDALL AFB    PTSUNNY   70  64  83 SE14G22   29.98F
TYND DRONE APT CLOUDY    71  64  78 SE18G31   29.99F
DE FUNIAK SPR  RAIN      64  63  99 NW3       29.99F
EGLIN AFB      HVY RAIN  64  64 100 SW6       29.98R VSB 1
DESTIN         RAIN      70  67  90 S8        29.96F FOG
HURLBURT       HVY RAIN  63  61  94 N12       29.98R FOG
CRESTVIEW      RAIN      65  63  93 W8        30.01S FOG
PENSACOLA      HVY RAIN  63  61  93 NE3       30.00F FOG
$$

!ALZ063-066-211800
...South Alabama...

CITY           SKY/WX    TMP DP  RH WIND       PRES   REMARKS
DOTHAN         CLOUDY    67  60  78 SE9       30.03F
OZARK CAIRNS   CLOUDY    68  58  71 SE9       29.99S
FT RUCKER HELI CLOUDY    67  58  71 CALM      30.00F
RUCKER HELI 3  NOT AVBL
RUCKER HELI 2  PTSUNNY   68  58  72 S6        29.99S
FLORALA APT    LGT RAIN  63  61  93 CALM      30.01F FOG
ANDALUSIA      CLOUDY    65  60  84 CALM      30.00S
TROY           LGT RAIN  61  59  93 N6        30.02F FOG
EUFALA         CLOUDY    72  60  66 E3        30.00F
MOBILE         LGT RAIN  63  60  90 SE6       29.99S FOG
$$

!GAZ120>161-211800
...Southwest and South Central Georgia...

CITY           SKY/WX    TMP DP  RH WIND       PRES   REMARKS
THOMASVILLE    FAIR      72  64  78 S10       30.08F
BAINBRIDGE     MOSUNNY   75  63  64 SE12G18   30.01F
MOODY AFB      PTSUNNY   70  59  68 SE10      30.06F
VALDOSTA       CLOUDY    70  60  70 SE10      30.07F
MOULTRIE       CLOUDY    70  61  73 SE12G18   30.07F
BLAKELY        PTSUNNY   73  59  60 CALM      30.02F
ALBANY         CLOUDY    74  61  63 SE16G24   30.07F
TIFTON         FAIR      69  61  75 SE6G17    30.07F
FITZGERALD     FAIR      71  62  74 S10       30.11F
CORDELE        PTSUNNY   72  61  66 SE17      30.08F
AMERICUS       CLOUDY    70  55  60 SE12      30.08F
HOMERVILLE     FAIR      73  63  68 S9        30.09F
$$

!GMZ750-755-770-775-211800
...Coastal and Buoy Obs...

STATION/POSITION TIME  TEMP    WIND        PRES    VSBY  WAVE
                       AIR SEA DIR/SP/G                  HT/PER
                 (UTC) (F)     (DEG/KT/KT) (MB)    (MI)  (FT/S)
KEATON BEACH     1700   71     120/ 11/ 14 1017.2F
CEDAR KEY        1700   68     130/ 11/ 12 1018.7F
C TOWER          1700   68     150/ 17/ 18 1016.7F
APALACHICOLA BUO 1650   71 70  160/ 16/ 17 1016.8F         3/ 4
PANAMA CITY BUOY 1650   72 70              1014.8F         4/ 5
MOBILE BUOY      NOT AVBL
ORANGE BCH AL BU 1650   64 68   70/  8/ 10 1015.3F         2/ 6
$$




USA.gov is the U.S. government's official web portal to all federal, state and local government web resources and services.